User: anonymous   Login
Location: Unspecified
(0.0000°N, 0.0000°E)
Time: 16:44:07
(UTC+00:00)
Language:

GONETS D1M 1 - Orbit

View from above orbital plane
View from above orbital plane
View from above satellite
View from above satellite

Ground track
Ground track

The orbit data is extracted from the following two-line orbital elements,

1 28908U 05048A   19017.43745838  .00000030  00000-0  12078-3 0  9998
2 28908  82.4663 238.9819 0007928  92.7355 311.6201 12.55490647599117
Epoch (UTC): 17 January 2019 10:29:56
Eccentricity: 0.0007928
inclination: 82.4663°
perigee height: 1435 km
apogee height: 1448 km
right ascension of ascending node: 238.9819°
argument of perigee: 92.7355°
revolutions per day: 12.55490647
mean anomaly at epoch: 311.6201°
orbit number at epoch: 59911

The dashed part of the orbit path shows where the satellite is in the earth's shadow,  

DLR